Powrót do katalogu

OPS 4682 DEB

AktywnyPO
NORAD 51501·DEBRIS·🇺🇸 United States

Wystrzelony Apr 3, 1965 z Vandenberg Space Force Base

Loading…

Następne Przeloty (najbliższe 24 godziny)

TLE

ŚwieżeSource: Space-Track

Epoka: Sep 14, 2026, 09:13 UTC

1 51501U 65027GM  26257.38419200 -.00000024  00000-0 -91713-4 0  9994
2 51501  90.3532  47.0937 0022837  94.3420 266.0318 13.09333700540420

Śledź OPS 4682 DEB w czasie rzeczywistym z AllMySat

Download on the App Store